Time,TemperatureF,DewpointF,PressureIn,WindDirection,WindDirectionDegrees,WindSpeedMPH,WindSpeedGustMPH,Humidity,HourlyPrecipIn,Conditions,Clouds,dailyrainin,SolarRadiationWatts/m^2,SoftwareType,DateUTC
2013-03-20 00:02:00,60.0,31.0,-100.00,NE,47,9.0,16.0,33,0.00,,,0.00,0.000000,,2013-03-20 05:02:00,
2013-03-20 00:33:00,59.0,31.0,-100.00,NE,52,8.0,16.0,34,0.00,,,0.00,0.000000,,2013-03-20 05:33:00,
2013-03-20 00:43:00,59.0,31.0,-100.00,NE,52,8.0,16.0,34,0.00,,,0.00,0.000000,,2013-03-20 05:43:00,
2013-03-20 00:53:00,59.0,31.0,-100.00,NE,52,8.0,16.0,34,0.00,,,0.00,0.000000,,2013-03-20 05:53:00,
2013-03-20 01:02:00,59.0,31.0,-100.00,NE,52,8.0,16.0,34,0.00,,,0.00,0.000000,,2013-03-20 06:02:00,
2013-03-20 01:32:00,56.0,30.0,-100.00,ENE,68,4.0,13.0,37,0.00,,,0.00,0.000000,,2013-03-20 06:32:00,
2013-03-20 01:43:00,56.0,30.0,-100.00,ENE,68,4.0,13.0,37,0.00,,,0.00,0.000000,,2013-03-20 06:43:00,
2013-03-20 01:53:00,56.0,30.0,-100.00,ENE,68,4.0,13.0,37,0.00,,,0.00,0.000000,,2013-03-20 06:53:00,
2013-03-20 02:02:00,56.0,30.0,-100.00,ENE,68,4.0,13.0,37,0.00,,,0.00,0.000000,,2013-03-20 07:02:00,
2013-03-20 02:32:00,53.0,30.0,-100.00,NNE,18,3.0,7.0,41,0.00,,,0.00,0.000000,,2013-03-20 07:32:00,
2013-03-20 02:42:00,53.0,30.0,-100.00,NNE,18,3.0,7.0,41,0.00,,,0.00,0.000000,,2013-03-20 07:42:00,
2013-03-20 02:52:00,53.0,30.0,-100.00,NNE,18,3.0,7.0,41,0.00,,,0.00,0.000000,,2013-03-20 07:52:00,
2013-03-20 03:02:00,53.0,30.0,-100.00,NNE,18,3.0,7.0,41,0.00,,,0.00,0.000000,,2013-03-20 08:02:00,
2013-03-20 03:32:00,50.0,32.0,-100.00,ENE,58,3.0,5.0,49,0.00,,,0.00,0.000000,,2013-03-20 08:32:00,
2013-03-20 03:42:00,50.0,32.0,-100.00,ENE,58,3.0,5.0,49,0.00,,,0.00,0.000000,,2013-03-20 08:42:00,
2013-03-20 03:52:00,50.0,32.0,-100.00,ENE,58,3.0,5.0,49,0.00,,,0.00,0.000000,,2013-03-20 08:52:00,
2013-03-20 04:02:00,50.0,32.0,-100.00,ENE,58,3.0,5.0,49,0.00,,,0.00,0.000000,,2013-03-20 09:02:00,
2013-03-20 04:33:00,49.0,33.0,-100.00,NE,55,3.0,6.0,54,0.00,,,0.00,0.000000,,2013-03-20 09:33:00,
2013-03-20 04:43:00,49.0,33.0,-100.00,NE,55,3.0,6.0,54,0.00,,,0.00,0.000000,,2013-03-20 09:43:00,
2013-03-20 04:53:00,49.0,33.0,-100.00,NE,55,3.0,6.0,54,0.00,,,0.00,0.000000,,2013-03-20 09:53:00,
2013-03-20 05:03:00,49.0,33.0,-100.00,NE,55,3.0,6.0,54,0.00,,,0.00,0.000000,,2013-03-20 10:03:00,
2013-03-20 05:33:00,48.0,33.0,-100.00,NE,37,5.0,7.0,56,0.00,,,0.00,0.000000,,2013-03-20 10:33:00,
2013-03-20 05:43:00,48.0,33.0,-100.00,NE,37,5.0,7.0,56,0.00,,,0.00,0.000000,,2013-03-20 10:43:00,
2013-03-20 05:53:00,48.0,33.0,-100.00,NE,37,5.0,7.0,56,0.00,,,0.00,0.000000,,2013-03-20 10:53:00,
2013-03-20 06:03:00,48.0,33.0,-100.00,NE,37,5.0,7.0,56,0.00,,,0.00,0.000000,,2013-03-20 11:03:00,
2013-03-20 06:32:00,50.0,34.0,-100.00,NE,38,5.0,10.0,54,0.00,,,0.00,0.000000,,2013-03-20 11:32:00,
2013-03-20 06:42:00,50.0,34.0,-100.00,NE,38,5.0,10.0,54,0.00,,,0.00,0.000000,,2013-03-20 11:42:00,
2013-03-20 06:52:00,50.0,34.0,-100.00,NE,38,5.0,10.0,54,0.00,,,0.00,0.000000,,2013-03-20 11:52:00,
2013-03-20 07:02:00,50.0,34.0,-100.00,NE,38,5.0,10.0,54,0.00,,,0.00,0.000000,,2013-03-20 12:02:00,
2013-03-20 07:33:00,47.0,32.0,-100.00,NE,38,2.0,7.0,56,0.00,,,-99.99,0.000000,,2013-03-20 12:33:00,
2013-03-20 07:43:00,47.0,32.0,-100.00,NE,38,2.0,7.0,56,0.00,,,-99.99,0.000000,,2013-03-20 12:43:00,
2013-03-20 07:52:00,47.0,32.0,-100.00,NE,38,2.0,7.0,56,0.00,,,-99.99,0.000000,,2013-03-20 12:52:00,
2013-03-20 08:03:00,47.0,32.0,-100.00,NE,38,2.0,7.0,56,0.00,,,-99.99,0.000000,,2013-03-20 13:03:00,
2013-03-20 08:32:00,44.0,33.0,-100.00,ENE,76,3.0,5.0,66,0.00,,,0.00,12.000000,,2013-03-20 13:32:00,
2013-03-20 08:43:00,44.0,33.0,-100.00,ENE,76,3.0,5.0,66,0.00,,,0.00,12.000000,,2013-03-20 13:43:00,
2013-03-20 08:53:00,44.0,33.0,-100.00,ENE,76,3.0,5.0,66,0.00,,,0.00,12.000000,,2013-03-20 13:53:00,
2013-03-20 09:02:00,44.0,33.0,-100.00,ENE,76,3.0,5.0,66,0.00,,,0.00,12.000000,,2013-03-20 14:02:00,
2013-03-20 09:34:00,52.0,36.0,-100.00,NNE,33,6.0,9.0,55,0.00,,,0.00,83.000000,,2013-03-20 14:34:00,
2013-03-20 09:43:00,52.0,36.0,-100.00,NNE,33,6.0,9.0,55,0.00,,,0.00,83.000000,,2013-03-20 14:43:00,
2013-03-20 09:52:00,52.0,36.0,-100.00,NNE,33,6.0,9.0,55,0.00,,,0.00,83.000000,,2013-03-20 14:52:00,
2013-03-20 10:02:00,52.0,36.0,-100.00,NNE,33,6.0,9.0,55,0.00,,,0.00,83.000000,,2013-03-20 15:02:00,
2013-03-20 10:33:00,57.0,38.0,-100.00,North,359,5.0,11.0,48,0.00,,,0.00,336.000000,,2013-03-20 15:33:00,
2013-03-20 10:43:00,57.0,38.0,-100.00,North,359,5.0,11.0,48,0.00,,,0.00,336.000000,,2013-03-20 15:43:00,
2013-03-20 10:53:00,57.0,38.0,-100.00,North,359,5.0,11.0,48,0.00,,,0.00,336.000000,,2013-03-20 15:53:00,
2013-03-20 11:03:00,57.0,38.0,-100.00,North,359,5.0,11.0,48,0.00,,,0.00,336.000000,,2013-03-20 16:03:00,
2013-03-20 11:33:00,61.0,38.0,-100.00,NNW,333,6.0,11.0,43,0.00,,,0.00,651.000000,,2013-03-20 16:33:00,
2013-03-20 11:43:00,61.0,38.0,-100.00,NNW,333,6.0,11.0,43,0.00,,,0.00,651.000000,,2013-03-20 16:43:00,
2013-03-20 11:53:00,61.0,38.0,-100.00,NNW,333,6.0,11.0,43,0.00,,,0.00,651.000000,,2013-03-20 16:53:00,
2013-03-20 12:03:00,61.0,38.0,-100.00,NNW,333,6.0,11.0,43,0.00,,,0.00,651.000000,,2013-03-20 17:03:00,
2013-03-20 12:33:00,65.0,37.0,-100.00,NNW,336,7.0,12.0,36,0.00,,,0.00,810.000000,,2013-03-20 17:33:00,
2013-03-20 12:42:00,65.0,37.0,-100.00,NNW,336,7.0,12.0,36,0.00,,,0.00,810.000000,,2013-03-20 17:42:00,
2013-03-20 12:53:00,65.0,37.0,-100.00,NNW,336,7.0,12.0,36,0.00,,,0.00,810.000000,,2013-03-20 17:53:00,
2013-03-20 13:02:00,65.0,37.0,-100.00,NNW,336,7.0,12.0,36,0.00,,,0.00,810.000000,,2013-03-20 18:02:00,
2013-03-20 13:34:00,67.0,27.0,-100.00,NNW,347,8.0,16.0,22,0.00,,,0.00,937.000000,,2013-03-20 18:34:00,
2013-03-20 13:43:00,67.0,27.0,-100.00,NNW,347,8.0,16.0,22,0.00,,,0.00,937.000000,,2013-03-20 18:43:00,
2013-03-20 13:53:00,67.0,27.0,-100.00,NNW,347,8.0,16.0,22,0.00,,,0.00,937.000000,,2013-03-20 18:53:00,
2013-03-20 14:02:00,67.0,27.0,-100.00,NNW,347,8.0,16.0,22,0.00,,,0.00,937.000000,,2013-03-20 19:02:00,
2013-03-20 14:33:00,67.0,23.0,-100.00,North,357,9.0,14.0,19,0.00,,,0.00,987.000000,,2013-03-20 19:33:00,
2013-03-20 14:42:00,67.0,23.0,-100.00,North,357,9.0,14.0,19,0.00,,,0.00,987.000000,,2013-03-20 19:42:00,
2013-03-20 14:53:00,67.0,23.0,-100.00,North,357,9.0,14.0,19,0.00,,,0.00,987.000000,,2013-03-20 19:53:00,
2013-03-20 15:02:00,67.0,23.0,-100.00,North,357,9.0,14.0,19,0.00,,,0.00,987.000000,,2013-03-20 20:02:00,
2013-03-20 15:32:00,68.0,27.0,-100.00,NNE,19,6.0,14.0,21,0.00,,,0.00,957.000000,,2013-03-20 20:32:00,
2013-03-20 15:43:00,68.0,27.0,-100.00,NNE,19,6.0,14.0,21,0.00,,,0.00,957.000000,,2013-03-20 20:43:00,
2013-03-20 15:53:00,68.0,27.0,-100.00,NNE,19,6.0,14.0,21,0.00,,,0.00,957.000000,,2013-03-20 20:53:00,
2013-03-20 16:02:00,68.0,27.0,-100.00,NNE,19,6.0,14.0,21,0.00,,,0.00,957.000000,,2013-03-20 21:02:00,
2013-03-20 16:33:00,69.0,27.0,-100.00,NNW,342,8.0,15.0,21,0.00,,,0.00,862.000000,,2013-03-20 21:33:00,
2013-03-20 16:42:00,69.0,27.0,-100.00,NNW,342,8.0,15.0,21,0.00,,,0.00,862.000000,,2013-03-20 21:42:00,
2013-03-20 16:53:00,69.0,27.0,-100.00,NNW,342,8.0,15.0,21,0.00,,,0.00,862.000000,,2013-03-20 21:53:00,
2013-03-20 17:03:00,69.0,27.0,-100.00,NNW,342,8.0,15.0,21,0.00,,,0.00,862.000000,,2013-03-20 22:03:00,
2013-03-20 17:33:00,69.0,29.0,-100.00,North,355,6.0,12.0,22,0.00,,,0.00,693.000000,,2013-03-20 22:33:00,
2013-03-20 17:43:00,69.0,29.0,-100.00,North,355,6.0,12.0,22,0.00,,,0.00,693.000000,,2013-03-20 22:43:00,
2013-03-20 17:53:00,69.0,29.0,-100.00,North,355,6.0,12.0,22,0.00,,,0.00,693.000000,,2013-03-20 22:53:00,
2013-03-20 18:02:00,69.0,29.0,-100.00,North,355,6.0,12.0,22,0.00,,,0.00,693.000000,,2013-03-20 23:02:00,
2013-03-20 18:33:00,68.0,28.0,-100.00,North,349,6.0,10.0,22,0.00,,,0.00,460.000000,,2013-03-20 23:33:00,
2013-03-20 18:43:00,68.0,28.0,-100.00,North,349,6.0,10.0,22,0.00,,,0.00,460.000000,,2013-03-20 23:43:00,
2013-03-20 18:53:00,68.0,28.0,-100.00,North,349,6.0,10.0,22,0.00,,,0.00,460.000000,,2013-03-20 23:53:00,
2013-03-20 19:02:00,68.0,28.0,-100.00,North,349,6.0,10.0,22,0.00,,,0.00,460.000000,,2013-03-21 00:02:00,
2013-03-20 19:33:00,63.0,24.0,-100.00,East,84,3.0,10.0,22,0.00,,,0.00,168.000000,,2013-03-21 00:33:00,
2013-03-20 19:42:00,63.0,24.0,-100.00,East,84,3.0,10.0,22,0.00,,,0.00,168.000000,,2013-03-21 00:42:00,
2013-03-20 19:52:00,63.0,24.0,-100.00,East,84,3.0,10.0,22,0.00,,,0.00,168.000000,,2013-03-21 00:52:00,
2013-03-20 20:02:00,63.0,24.0,-100.00,East,84,3.0,10.0,22,0.00,,,0.00,168.000000,,2013-03-21 01:02:00,
2013-03-20 20:33:00,56.0,26.0,-100.00,East,95,2.0,7.0,31,0.00,,,0.00,13.000000,,2013-03-21 01:33:00,
2013-03-20 20:42:00,56.0,26.0,-100.00,East,95,2.0,7.0,31,0.00,,,0.00,13.000000,,2013-03-21 01:42:00,
2013-03-20 20:53:00,56.0,26.0,-100.00,East,95,2.0,7.0,31,0.00,,,0.00,13.000000,,2013-03-21 01:53:00,
2013-03-20 21:02:00,56.0,26.0,-100.00,East,95,2.0,7.0,31,0.00,,,0.00,13.000000,,2013-03-21 02:02:00,
2013-03-20 21:33:00,53.0,29.0,-100.00,East,90,3.0,4.0,40,0.00,,,0.00,0.000000,,2013-03-21 02:33:00,
2013-03-20 21:42:00,53.0,29.0,-100.00,East,90,3.0,4.0,40,0.00,,,0.00,0.000000,,2013-03-21 02:42:00,
2013-03-20 21:52:00,53.0,29.0,-100.00,East,90,3.0,4.0,40,0.00,,,0.00,0.000000,,2013-03-21 02:52:00,
2013-03-20 22:02:00,53.0,29.0,-100.00,East,90,3.0,4.0,40,0.00,,,0.00,0.000000,,2013-03-21 03:02:00,
2013-03-20 22:33:00,54.0,28.0,-100.00,East,96,3.0,7.0,36,0.00,,,0.00,0.000000,,2013-03-21 03:33:00,
2013-03-20 22:43:00,54.0,28.0,-100.00,East,96,3.0,7.0,36,0.00,,,0.00,0.000000,,2013-03-21 03:43:00,
2013-03-20 22:53:00,54.0,28.0,-100.00,East,96,3.0,7.0,36,0.00,,,0.00,0.000000,,2013-03-21 03:53:00,
2013-03-20 23:03:00,54.0,28.0,-100.00,East,96,3.0,7.0,36,0.00,,,0.00,0.000000,,2013-03-21 04:03:00,
2013-03-20 23:33:00,55.0,28.0,-100.00,ESE,102,4.0,9.0,35,0.00,,,0.00,0.000000,,2013-03-21 04:33:00,
2013-03-20 23:43:00,55.0,28.0,-100.00,ESE,102,4.0,9.0,35,0.00,,,0.00,0.000000,,2013-03-21 04:43:00,
2013-03-20 23:53:00,55.0,28.0,-100.00,ESE,102,4.0,9.0,35,0.00,,,0.00,0.000000,,2013-03-21 04:53:00,